STARLINK-4270, 52863

Orbit data source: Space-Track

STARLINK-4270, 52863 is a payload satellite owned by SpaceX/Seattle (US) in LEO that was launched on Fri, 17 Jun 2022 UTC via an FALCON 9 launch vehicle from the Air Force Eastern Test Range (AFETR). Payload-class satellites include a variety of spacecraft equipped with specific instruments for various scientific and technological missions. These include communications satellites like Starlink; space stations such as the ISS; scientific satellites like the Hubble; Earth observation satellites from companies like Planet Labs, Umbra, and HawkEye 360; GPS; miniature CubeSats for education and research; and military/defense satellites.

Loading next visibility...
Identifier
52863, 2022-062AK
Orbit
LEO
Country
Flag of USUS
Related business
Manufacturer
SpaceX/Seattle
Mission
Operational Commercial Communications
Bus & Motor
STARLINK, Unknown motor
Mass
297 kg wet, ~275 kg dry
Launch date (UTC)
2022-06-17 (3 years ago)
Launch vehicle
FALCON 9
Launch site
Air Force Eastern Test Range (AFETR)
Object type
Payload
Rocket body
Debris
Shape & HBR
Box + 1 Pan, 10.1 m
Radar Cross Section
13.562 m², Large (>1 m²)

Expand to show TLE details & history
Last TLE update: 18 hours ago

TLE from 18 hours ago
0 STARLINK-4270
1 52863U 22062AK  25349.34278686 -.00000118  00000-0  10693-4 0  9997
2 52863  53.2197  42.7698 0001449  85.8852 274.2306 15.08834223193196
Epoch: 2025-12-15T08:13Z
TLE epoch observation values (Epoch: 2025-12-15T08:13:36.784Z)
Latitude
-0.00002°
Longitude
-164.8762°
Altitude
540.585 km
Speed
7.593 km/s
True Right ascension
02h 51m 04s
True Declination
0° 00' 00"
Sunlit
Object was in full shadow at epoch
Visualization orbit readout
Latitude
Unknown
Longitude
Unknown
Altitude
Unknown
Speed
Unknown
Apparent Right ascension
Unknown
Apparent Declination
Unknown
Sunlit
N/A
Visualization observer readout
Local Sidereal Time
00:24:23
Azimuth
Unknown
Elevation
Unknown
Doppler factor
Unknown
Orbital elements
Apogee altitude
541.008 km
Perigee altitude
539.003 km
Semi-major axis
6,918.143 km
Eccentricity
0.00014
Inclination
53.2197°
RAAN
42.7698°
Arg. of periapsis
85.8852°
True anomaly
274.21404°
Mean anomaly
274.2306°
Eccentric anomaly
274.22232°
Mean motion
3.77189 °/min
Orbital period
95.44 mins
BSTAR
0.000010693
Loading maneuver chart data...
Computing Atmospheric mass density...
Loading historical data...
Loading historical data...
Loading historical data...
Loading historical data...
Loading historical data...
Loading historical data...
Loading historical data...

Documentation

Showing up to 5 results
|